Simultaneous Nadir Overpasses (SNOs) Predictions

Prediction of SNOs over PacNW region [( 10.00, 139.50) to ( 22.70, 165.60)] between NOAA-19 and NPP Satellites:

Table of predicted SNOs over PacNW region for the next 30.0 days since TLE Epoch: 10/5/2012
Index Date (NOAA-19) Time (NOAA-19) NOAA-19 Lat,Lon Date (NPP) Time (NPP) NPP Lat,Lon Distance(km) Time Diff (sec)
1 10/09/2012 03:23:52 10.11, 150.85 10/09/2012 03:27:27 9.05, 147.50 386.25 215
2 10/09/2012 16:00:31 20.82, 146.66 10/09/2012 15:59:59 21.35, 144.18 264.48 32
3 10/10/2012 03:16:37 22.68, 150.54 10/10/2012 03:13:01 25.26, 148.37 362.01 216
4 10/21/2012 15:31:58 22.61, 154.16 10/21/2012 15:33:54 23.29, 151.04 327.96 116
5 10/22/2012 02:48:32 22.67, 157.59 10/22/2012 02:46:37 22.22, 155.52 218.64 115
6 11/02/2012 15:03:48 22.63, 161.23 11/02/2012 15:07:25 26.71, 158.29 543.04 217
7 11/03/2012<
